Saint Paul, MN

12:30 AM CST on February 09, 2016 (GMT -0600)
Saint Paul Downtown-Holman

Weather History for KSTP - February, 2013

Change the Weather History Date:

Saturday, February 16, 2013

  Actual Average Record
Temperature  
Mean Temperature 10 °F -  
Max Temperature 17 °F 29 °F 48 °F (2011)
Min Temperature 3 °F 15 °F 0 °F (2001)
Degree Days  
Heating Degree Days 55    
Moisture  
Dew Point 2 °F    
Average Humidity 71    
Maximum Humidity 84    
Minimum Humidity 56    
Precipitation  
Precipitation 0.00 in - - ()
Sea Level Pressure  
Sea Level Pressure 30.24 in    
Wind  
Wind Speed 4 mph (SSW)    
Max Wind Speed 8 mph    
Max Gust Speed -    
Visibility 9 miles    
Events      
Averages and records for this station are not official NWS values.
T = Trace of Precipitation, MM = Missing Value Source: NWS Daily Summary

Daily Weather History Graph

Daily Weather History Graph

Search for Another Location

Airport or City:

Trip Planner

Search our weather history database for the weather conditions in past years. The results will help you decide how hot, cold, wet, or windy it might be!

Date:

Astronomy

Feb. 16, 2013 Rise Set
Actual Time 7:11 AM CST 5:42 PM CST
Civil Twilight 6:40 AM CST 6:12 PM CST
Nautical Twilight 6:06 AM CST 6:46 PM CST
Astronomical Twilight 5:32 AM CST 7:20 PM CST
Moon 10:05 AM CST (2/16) 12:00 AM CST (2/16)
Length of Visible Light 11h 31m
Length of Day
10h 31m
Waxing Crescent, 39% of the Moon is Illuminated
Feb 16
Waxing Crescent
Feb 17
First Quarter
Feb 25
Full
Mar 4
Last Quarter
Mar 11
New

Hourly Weather History & Observations

Time (CST) Temp. Windchill Dew Point Humidity Pressure Visibility Wind Dir Wind Speed Gust Speed Precip Events Conditions
12:53 AM 7.0 °F -5.7 °F -0.9 °F 70% 30.30 in 10.0 mi NW 8.1 mph - N/A   Clear
1:53 AM 6.1 °F -5.6 °F -0.9 °F 73% 30.31 in 10.0 mi NW 6.9 mph - N/A   Overcast
2:53 AM 6.1 °F -5.6 °F -0.9 °F 73% 30.29 in 10.0 mi West 6.9 mph - N/A   Overcast
3:53 AM 6.1 °F -2.8 °F -0.9 °F 73% 30.27 in 10.0 mi West 4.6 mph - N/A   Mostly Cloudy
4:53 AM 3.9 °F -3.4 °F -0.9 °F 80% 30.27 in 10.0 mi WSW 3.5 mph - N/A   Mostly Cloudy
5:53 AM 5.0 °F - -0.9 °F 76% 30.27 in 10.0 mi Calm Calm - N/A   Overcast
6:53 AM 5.0 °F - -0.9 °F 76% 30.27 in 10.0 mi Calm Calm - N/A   Overcast
7:53 AM 6.1 °F - 1.0 °F 80% 30.27 in 9.0 mi Calm Calm - N/A   Overcast
8:42 AM 6.8 °F - 1.4 °F 79% 30.22 in 7.0 mi Calm Calm - N/A   Scattered Clouds
8:53 AM 7.0 °F - 1.9 °F 80% 30.27 in 7.0 mi Calm Calm - N/A   Partly Cloudy
9:53 AM 10.0 °F - 3.0 °F 73% 30.26 in 9.0 mi Calm Calm - N/A   Scattered Clouds
10:00 AM 10.4 °F 4.0 °F 5.0 °F 79% 30.22 in 9.0 mi NW 3.5 mph - N/A   Mostly Cloudy
10:53 AM 10.9 °F - 3.9 °F 73% 30.26 in 10.0 mi Calm Calm - N/A   Overcast
11:40 AM 12.2 °F - 3.2 °F 67% 30.21 in 10.0 mi Calm Calm - N/A   Scattered Clouds
11:53 AM 12.0 °F - 3.0 °F 67% 30.25 in 10.0 mi Calm Calm - N/A   Clear
12:53 PM 16.0 °F - 3.9 °F 59% 30.23 in 10.0 mi Calm Calm - N/A   Clear
1:53 PM 16.0 °F - 3.0 °F 57% 30.21 in 10.0 mi Calm Calm - N/A   Clear
2:53 PM 17.1 °F 10.0 °F 3.9 °F 56% 30.20 in 10.0 mi SE 4.6 mph - N/A   Clear
3:53 PM 17.1 °F 8.7 °F 5.0 °F 59% 30.20 in 10.0 mi South 5.8 mph - N/A   Clear
4:53 PM 16.0 °F 6.3 °F 5.0 °F 62% 30.21 in 10.0 mi SSE 6.9 mph - N/A   Clear
5:53 PM 12.9 °F 2.6 °F 3.0 °F 65% 30.22 in 10.0 mi South 6.9 mph - N/A   Clear
6:53 PM 10.9 °F 2.9 °F 1.9 °F 67% 30.22 in 10.0 mi South 4.6 mph - N/A   Clear
7:53 PM 12.0 °F 4.1 °F 3.0 °F 67% 30.21 in 10.0 mi ESE 4.6 mph - N/A   Clear
8:53 PM 10.0 °F - 3.0 °F 73% 30.22 in 9.0 mi Calm Calm - N/A   Clear
9:53 PM 7.0 °F 0.1 °F 1.9 °F 80% 30.21 in 10.0 mi SSE 3.5 mph - N/A   Clear
10:53 PM 8.1 °F 1.4 °F 3.0 °F 80% 30.19 in 8.0 mi SSE 3.5 mph - N/A   Mostly Cloudy
11:53 PM 7.0 °F -1.7 °F 3.0 °F 84% 30.17 in 7.0 mi SSE 4.6 mph - N/A   Clear